Regional Weather Roundup
Issued by NWS Little Rock, AR

Home | Current Version | Previous Version | Text Only | Print | Product List | Glossary Off
Versions: 1 2 3 4 5 6 7 8 9 10 11 12 13 14 15 16 17 18 19 20 21 22 23 24 25 26 27 28 29 30 31 32 33 34 35 36 37 38 39 40 41 42 43 44 45 46 47 48 49 50

000
ASUS44 KLZK 291905
RWRLZK

WEATHER ROUNDUP FOR ARKANSAS
NATIONAL WEATHER SERVICE LITTLE ROCK AR
200 PM CDT MON SEP 29 2014

NOTE: "FAIR" INDICATES FEW OR NO CLOUDS BELOW 12,000 FEET WITH NO
SIGNIFICANT WEATHER AND/OR OBSTRUCTIONS TO VISIBILITY.

ARZ001-003-010-029-292000-
NORTHWEST ARKANSAS

CITY           SKY/WX    TMP DP  RH WIND       PRES   REMARKS
FAYETTEVILLE   SUNNY     82  57  42 S5        30.04F
FORT SMITH     SUNNY     85  59  41 VRB3      30.00F
HARRISON       MOSUNNY   82  58  43 SE6       30.05F
BENTONVILLE    SUNNY     82  55  39 E3        30.06F
ROGERS         MOSUNNY   82  54  37 E7        30.06F
SILOAM SPGS    MOSUNNY   79  59  50 N3        30.05F
HIGHFILL       SUNNY     84  59  42 NE5       30.04F
SPRINGDALE     MOSUNNY   81  57  44 SE6       30.07F
$$

ARZ004-005-016-292000-
NORTH CENTRAL ARKANSAS

CITY           SKY/WX    TMP DP  RH WIND       PRES   REMARKS
BATESVILLE     MOSUNNY   86  57  37 N5        29.99F HX  85
FLIPPIN        MOSUNNY   84  57  39 E3        30.02F
MTN HOME       CLOUDY    82  58  43 VRB3      30.02F
$$

ARZ040-041-292000-
WEST CENTRAL ARKANSAS

CITY           SKY/WX    TMP DP  RH WIND       PRES   REMARKS
MENA           MOSUNNY   84  61  45 CALM      30.03F
MOUNT IDA      SUNNY     84  58  40 VRB5      30.00F
$$

ARZ009-017-025-026-028-292000-
NORTHEAST ARKANSAS

CITY           SKY/WX    TMP DP  RH WIND       PRES   REMARKS
CORNING        LGT RAIN  84  54  34 N5        29.99F
JONESBORO      SUNNY     88  54  31 NE12G20   29.98F HX  86
NEWPORT        CLOUDY    87  58  37 E9        29.99F HX  86
WALNUT RIDGE   SUNNY     84  55  37 NE9       29.99F
BLYTHEVILLE    SUNNY     89  58  34 N9        29.98F HX  88
$$

ARZ022-023-033-042-044-292000-
CENTRAL ARKANSAS

CITY           SKY/WX    TMP DP  RH WIND       PRES   REMARKS
LITTLE ROCK    MOSUNNY   88  58  36 VRB6      29.99F HX  87
N LITTLE ROCK  MOSUNNY   87  62  41 E8        29.99F HX  87
SEARCY         SUNNY     89  59  36 NE9       29.99F HX  88
HOT SPRINGS    SUNNY     84  56  38 E6        29.99F
RUSSELLVILLE   MOSUNNY   87  60  40 VRB7      29.99F HX  87
CLINTON        PTSUNNY   86  61  42 CALM      30.00F HX  86
$$

ARZ036-292000-
EAST ARKANSAS

CITY           SKY/WX    TMP DP  RH WIND       PRES   REMARKS
WEST MEMPHIS   MOSUNNY   86  59  39 NE9       29.97F HX  85
$$

ARZ050-053-066-070-073-292000-
SOUTHWEST ARKANSAS

CITY           SKY/WX    TMP DP  RH WIND       PRES   REMARKS
ARKADELPHIA    FAIR      85  63  47 NE3       29.98F HX  86
CAMDEN         MOSUNNY   90  55  31 NE10G16   29.97F HX  88
TEXARKANA      MOSUNNY   85  62  46 NE10      29.98F HX  85
EL DORADO      MOSUNNY   87  62  43 NE10      29.96F HX  87
DE QUEEN       SUNNY     85  61  44 E9        29.98F HX  85
$$

ARZ056-057-069-292000-
SOUTHEAST ARKANSAS

CITY           SKY/WX    TMP DP  RH WIND       PRES   REMARKS
PINE BLUFF     SUNNY     86  59  39 VRB7      29.98F HX  85
STUTTGART      MOSUNNY   84  63  48 NE8       29.99F HX  85
MONTICELLO     MOSUNNY   88  59  37 NE9G17    29.96F HX  87

$$





USA.gov is the U.S. government's official web portal to all federal, state and local government web resources and services.